This is the latest recevied weather packets stored in our database for station/object SP2WM. If no packets are shown the sender has not sent any weather packets the latest 10 day(s).
| Time | Temp. | Humidity | Pressure | Rain* | Wind** | Luminosity | Snow |
|---|---|---|---|---|---|---|---|
| 1777936838 | 16.67° C | 75% | 1009.1 hPa | 0 mm | - | - | - |
| 1777936225 | 16.67° C | 74% | 1008.9 hPa | 0 mm | - | - | - |
| 1777935622 | 16.67° C | 73% | 1009.1 hPa | 0 mm | - | - | - |
| 1777935022 | 17.22° C | 73% | 1009.1 hPa | 0 mm | - | - | - |
| 1777934428 | 17.22° C | 72% | 1009.1 hPa | 0 mm | - | - | - |
| 1777933827 | 17.78° C | 71% | 1009.1 hPa | 0 mm | - | - | - |
| 1777933223 | 17.78° C | 70% | 1009.1 hPa | 0 mm | - | - | - |
| 1777932629 | 17.78° C | 69% | 1009.2 hPa | 0 mm | - | - | - |
| 1777932031 | 17.78° C | 69% | 1009.1 hPa | 0 mm | - | - | - |
| 1777931427 | 17.78° C | 68% | 1009.2 hPa | 0 mm | - | - | - |
| 1777930834 | 17.78° C | 66% | 1009.1 hPa | 0 mm | - | - | - |
| 1777930231 | 17.22° C | 68% | 1009 hPa | 0 mm | - | - | - |
| 1777929628 | 17.22° C | 66% | 1009 hPa | 0 mm | - | - | - |
| 1777929037 | 17.22° C | 66% | 1009 hPa | 0 mm | - | - | - |
| 1777928435 | 17.78° C | 65% | 1008.9 hPa | 0 mm | - | - | - |
| 1777927832 | 17.78° C | 65% | 1008.8 hPa | 0 mm | - | - | - |
| 1777927239 | 17.78° C | 65% | 1008.8 hPa | 0 mm | - | - | - |
| 1777926636 | 18.33° C | 64% | 1009 hPa | 0 mm | - | - | - |
| 1777925430 | 18.33° C | 61% | 1008.8 hPa | 0 mm | - | - | - |
| 1777924830 | 18.89° C | 60% | 1008.8 hPa | 0 mm | - | - | - |
| 1777924227 | 18.89° C | 60% | 1009.1 hPa | 0 mm | - | - | - |
| 1777923633 | 18.89° C | 59% | 1009 hPa | 0 mm | - | - | - |
| 1777923033 | 19.44° C | 58% | 1009 hPa | 0 mm | - | - | - |
| 1777922432 | 19.44° C | 57% | 1008.8 hPa | 0 mm | - | - | - |
| 1777921840 | 19.44° C | 58% | 1008.8 hPa | 0 mm | - | - | - |
* Rain latest hour (hover to see other rain measurements)
** Current wind speed in m/s (hover to see current wind gust speed)